TimeMDT,TemperatureF,Dew PointF,Humidity,Sea Level PressureIn,VisibilityMPH,Wind Direction,Wind SpeedMPH,Gust SpeedMPH,PrecipitationIn,Events,Conditions,WindDirDegrees,DateUTC
12:00 AM,-27,-33,56,30.42,15,SSW,8.1,,,,,210,2013-03-20 06:00:00
12:00 AM,-27.4,-32.8,75,30.42,15.0,SSW,8.1,-,N/A,,Clear,210,2013-03-20 06:00:00
1:00 AM,-27.4,-32.8,75,30.43,15.0,SW,3.5,-,N/A,,Partly Cloudy,220,2013-03-20 07:00:00
2:00 AM,-27.4,-32.8,75,30.44,15.0,Calm,Calm,-,N/A,,Partly Cloudy,0,2013-03-20 08:00:00
3:00 AM,-27.4,-32.8,75,30.44,15.0,Calm,Calm,-,N/A,,Partly Cloudy,0,2013-03-20 09:00:00
4:00 AM,-29.2,-36.4,68,30.44,15.0,Calm,Calm,-,N/A,,Partly Cloudy,0,2013-03-20 10:00:00
5:00 AM,-29.2,-36.4,68,30.44,15.0,Calm,Calm,-,N/A,,Partly Cloudy,0,2013-03-20 11:00:00
6:00 AM,-32,-38,57,30.44,15,Calm,Calm,,,Snow,Snow,,2013-03-20 12:00:00
6:00 AM,-31.0,-38.2,68,30.44,15.0,Calm,Calm,-,N/A,,Partly Cloudy,0,2013-03-20 12:00:00
7:00 AM,-32.8,-38.2,75,30.44,15.0,North,3.5,-,N/A,,Scattered Clouds,350,2013-03-20 13:00:00
8:00 AM,-31.0,-36.4,75,30.44,15.0,Calm,Calm,-,N/A,,Mostly Cloudy,0,2013-03-20 14:00:00
9:00 AM,-32.8,-38.2,75,30.42,15.0,North,3.5,-,N/A,,Mostly Cloudy,350,2013-03-20 15:00:00
10:00 AM,-27.4,-34.6,69,30.43,15.0,Calm,Calm,-,N/A,,Overcast,0,2013-03-20 16:00:00
11:00 AM,-27.4,-32.8,75,30.42,15.0,Calm,Calm,-,N/A,,Mostly Cloudy,0,2013-03-20 17:00:00
11:55 AM,-9999,-9999,N/A,-9999,15.0,NE,3.5,-,N/A,,Overcast,50,2013-03-20 17:55:00
12:00 PM,-24,-30,61,30.41,15,NE,3.5,,,Snow,Snow,50,2013-03-20 18:00:00
12:00 PM,-23.8,-29.2,76,30.41,15.0,NE,3.5,-,N/A,,Overcast,50,2013-03-20 18:00:00
1:00 PM,-20.2,-29.2,63,30.39,12.0,East,6.9,-,N/A,,Overcast,80,2013-03-20 19:00:00
1:33 PM,-9999,-9999,N/A,-9999,2.0,ENE,9.2,-,N/A,,Ice Crystals,60,2013-03-20 19:33:00
1:52 PM,-9999,-9999,N/A,-9999,2.5,ENE,11.5,-,N/A,Snow,Light Snow Grains,60,2013-03-20 19:52:00
2:00 PM,-18.4,-23.8,76,30.35,2.5,ENE,10.4,-,N/A,Snow,Light Snow Grains,70,2013-03-20 20:00:00
3:00 PM,-16.6,-23.8,70,30.32,2.0,ENE,13.8,-,N/A,Snow,Light Snow Grains,70,2013-03-20 21:00:00
3:39 PM,-9999,-9999,N/A,-9999,1.0,East,17.3,23.0,N/A,Snow,Light Snow Grains,80,2013-03-20 21:39:00
3:52 PM,-9999,-9999,N/A,-9999,0.8,ENE,11.5,17.3,N/A,Snow,Light Snow Grains,70,2013-03-20 21:52:00
4:00 PM,-14.8,-20.2,77,30.27,0.8,ENE,11.5,19.6,N/A,Snow,Light Snow Grains,60,2013-03-20 22:00:00
5:00 PM,-13.0,-18.4,77,30.26,0.5,ENE,9.2,-,N/A,Snow,Snow,70,2013-03-20 23:00:00
6:00 PM,-13,-19,59,30.22,1,ENE,12.7,,,Snow,Light Snow,60,2013-03-21 00:00:00
7:00 PM,-9.4,-16.6,71,30.19,0.8,NE,8.1,-,N/A,Snow,Light Snow,40,2013-03-21 01:00:00
8:00 PM,-9.4,-13.0,84,30.17,0.5,North,8.1,-,N/A,Snow,Snow,10,2013-03-21 02:00:00
9:00 PM,-9.4,-14.8,77,30.16,1.2,NNW,4.6,-,N/A,Snow,Light Snow,340,2013-03-21 03:00:00
10:00 PM,-16.6,-20.2,84,30.17,1.2,WSW,11.5,20.7,N/A,Snow,Light Snow,240,2013-03-21 04:00:00
11:00 PM,-16.6,-22.0,76,30.17,1.2,WSW,11.5,19.6,N/A,Snow,Light Snow,250,2013-03-21 05:00:00